Observations for Trim Market St
| Time | AQI | Temp °C | Hum % | Pres Pa | CO μg/m³ | H₂S μg/m³ | NO μg/m³ | NO₂ μg/m³ | O₃ μg/m³ | SO₂ μg/m³ | PM1 μg/m³ | PM2.5 μg/m³ | PM10 μg/m³ |
|---|---|---|---|---|---|---|---|---|---|---|---|---|---|
| Wednesday 15 July 2026 | |||||||||||||
| 04:20 | 1 | 17.4 | 76 | 26,821 | 0.17 | 0 | 0 | 4.47 | 20.37 | 0 | 7.13 | 10.38 | 16.35 |
| 04:19 | 1 | 17.4 | 76 | 27,147 | 0.16 | 0 | 0 | 5.57 | 22.76 | 0 | 8.55 | 11.81 | 16.35 |
| 04:18 | 1 | 17.4 | 76 | 27,521 | 0.17 | 0 | 0 | 7.37 | 15.97 | 0 | 7.84 | 11.33 | 16.35 |
| 04:17 | 1 | 17.5 | 76 | 27,841 | 0.17 | 0 | 0 | 5.25 | 20.95 | 0 | 7.13 | 11.81 | 16.36 |
| 04:15 | 1 | 17.5 | 76 | 28,368 | 0.17 | 0 | 0 | 4.55 | 20.17 | 0 | 9.98 | 13.24 | 19.31 |
| 04:14 | 1 | 17.5 | 76 | 28,706 | 0.15 | 0 | 0 | 8.46 | 20.12 | 0 | 9.26 | 12.78 | 19.32 |
| 04:12 | 1 | 17.5 | 76 | 29,395 | 0.17 | 0 | 0 | 7.96 | 18.11 | 0 | 7.84 | 10.87 | 15.19 |
| 04:10 | 1 | 17.5 | 76 | 30,123 | 0.17 | 0 | 0 | 5.79 | 19.79 | 0 | 8.55 | 14.22 | 20.52 |
| 04:04 | 1 | 17.5 | 76 | 31,811 | 0.16 | 0 | 0 | 8.02 | 25.46 | 0 | 6.41 | 10.43 | 16.42 |
| 04:02 | 1 | 17.5 | 76 | 32,640 | 0.16 | 0 | 0 | 7.43 | 23.81 | 0 | 7.84 | 10.43 | 15.83 |
| 04:01 | 1 | 17.5 | 76 | 33,045 | 0.16 | 0 | 0 | 7.23 | 22.79 | 0 | 9.26 | 13.78 | 19.39 |
| 03:53 | 1 | 17.5 | 75 | 36,069 | 0.16 | 0 | 0 | 6.08 | 27.12 | 0 | 8.55 | 11.9 | 16.46 |
| 03:51 | 1 | 17.5 | 75 | 36,327 | 0.16 | 0 | 0 | 5.79 | 21 | 0 | 7.13 | 10.95 | 17.66 |
| 03:50 | 1 | 17.5 | 75 | 36,752 | 0.16 | 0 | 0 | 6.9 | 19.76 | 0 | 7.13 | 11.43 | 16.48 |
| 03:49 | 1 | 17.5 | 75 | 37,116 | 0.16 | 0 | 0 | 6.2 | 23.37 | 0 | 7.84 | 11.43 | 17.07 |
| 03:48 | 1 | 17.5 | 75 | 37,582 | 0.16 | 0 | 0 | 8.41 | 23.24 | 0 | 7.84 | 10.48 | 16.49 |
| 03:47 | 1 | 17.5 | 75 | 37,968 | 0.17 | 0 | 0 | 5.71 | 20.63 | 0 | 5.7 | 10 | 14.7 |
| 03:46 | 1 | 17.5 | 75 | 38,279 | 0.16 | 0 | 0 | 6.42 | 21.31 | 0 | 7.84 | 13.36 | 20.08 |
| 03:45 | 1 | 17.5 | 75 | 38,795 | 0.16 | 0 | 0 | 6.62 | 21.26 | 0 | 7.13 | 10.97 | 15.3 |
| 03:44 | 1 | 17.5 | 75 | 39,297 | 0.16 | 0 | 0 | 6.33 | 22.85 | 0 | 7.84 | 12.41 | 18.3 |